Location: Hokitika
(42.7170°S, 170.9670°E)
Time: 23:04:09
(UTC+13:00)

ISS - Pass Details

Date: 02 February 2019
Orbit: 403 x 411 km, 51.6° (Epoch: 21 February)

Event Time Altitude Azimuth Distance (km) Brightness Sun altitude
Exits shadow 04:30:02 50° 45° (NE) 541 -3.3 -19.8°
Drops below altitude 10° 04:33:13 10° 115° (ESE) 1,500 0.0 -19.4°
Sets 04:35:21 0° 120° (ESE) 2,366 1.4 -19.1°
